This demonstration page uses our WeatherBlox Daily Observations layout. Learn more.

Left ArrowRight Arrow

Hourly Observations for February 2, 2017

Temp ( °F °C ) Dew Point ( °F °C ) Humidity (%) Winds ( mph kmh ) Pressure ( in mb ) Visibility ( mi km ) Precip ( " mm )
12:51 am 00:51 Clear 36 2.2 25 -3.9 64 64 N N/A 30.09 1019 10 16 N/A
1:51 am 01:51 Clear 39 3.9 22 -5.6 50 50 N N/A 30.09 1019 10 16 N/A
2:51 am 02:51 Clear 36 2.2 23 -5 59 59 N N/A 30.09 1019 10 16 N/A
3:51 am 03:51 Clear 34 1.1 24 -4.4 67 67 N N/A 30.09 1019 10 16 N/A
4:51 am 04:51 Clear 34 1.1 22 -5.6 61 61 N N/A 30.10 1019 10 16 N/A
5:51 am 05:51 Clear 32 undefined 23 -5 69 69 SE 3 6 30.13 1020 10 16 N/A
6:51 am 06:51 Clear 32 undefined 22 -5.6 66 66 N N/A 30.17 1022 10 16 N/A
7:51 am 07:51 Sunny 34 1.1 24 -4.4 67 67 N 3 6 30.19 1023 10 16 N/A
8:51 am 08:51 Sunny 43 6.1 26 -3.3 51 51 S 3 6 30.19 1022 10 16 N/A
9:51 am 09:51 Sunny 48 8.9 24 -4.4 39 39 SE 5 7 30.19 1022 10 16 N/A
10:51 am 10:51 Sunny 57 13.9 21 -6.1 25 25 SSE 8 13 30.16 1021 10 16 N/A
11:51 am 11:51 Sunny 61 16.1 22 -5.6 22 22 ESE 8 13 30.12 1020 10 16 N/A
12:51 pm 12:51 Sunny 64 17.8 20 -6.7 18 18 SSE 5 7 30.09 1019 10 16 N/A
1:51 pm 13:51 Sunny 66 18.9 19 -7.2 16 16 SW 3 6 30.04 1017 10 16 N/A
2:51 pm 14:51 Sunny 68 20 18 -7.8 15 15 VRB 3 6 30.03 1017 10 16 N/A
3:51 pm 15:51 Sunny 69 20.6 19 -7.2 15 15 N N/A 30.02 1017 10 16 N/A
4:51 pm 16:51 Sunny 68 20 19 -7.2 15 15 N N/A 30.03 1017 10 16 N/A
5:51 pm 17:51 Sunny 62 16.7 23 -5 22 22 NW 5 7 30.04 1017 10 16 N/A
6:51 pm 18:51 Clear 55 12.8 25 -3.9 31 31 N N/A 30.07 1018 10 16 N/A
7:51 pm 19:51 Clear 53 11.7 25 -3.9 34 34 N N/A 30.07 1018 10 16 N/A
8:51 pm 20:51 Clear 51 10.6 26 -3.3 38 38 SE 6 9 30.07 1018 10 16 N/A
9:51 pm 21:51 Clear 46 7.8 26 -3.3 46 46 ENE 7 11 30.08 1019 10 16 N/A
10:51 pm 22:51 Clear with Light Rain 45 7.2 26 -3.3 48 48 N N/A 30.07 1018 10 16 N/A
11:51 pm 23:51 Clear 45 7.2 26 -3.3 48 48 SSE 5 7 30.06 1018 10 16 N/A

Powered by AerisWeather